WD4ITN Weather Reports


time (UTC)temp
C
wind
direction
speed
KPH
gust
KPH
rain 1hr
cm
rain 24hr
cm
rain mn
cm
humidity
%
barometer
mb
20260510065817 8 249 6.4 0.0 0.00 0.00 0.00 88 1011.5
20260510065314 8 190 8.0 0.0 0.00 0.00 0.00 88 1011.5
20260510064831 8 190 8.0 0.0 0.00 0.00 0.00 86 1011.4
20260510064318 8 215 8.0 0.0 0.00 0.00 0.00 85 1011.4
20260510063825 8 219 8.0 0.0 0.00 0.00 0.00 85 1011.3
20260510063323 9 208 8.0 0.0 0.00 0.00 0.00 84 1011.3
20260510062821 9 178 9.7 0.0 0.00 0.00 0.00 82 1011.3
20260510062317 10 193 9.7 0.0 0.00 0.00 0.00 82 1011.4
20260510061820 10 200 8.0 0.0 0.00 0.00 0.00 80 1011.3
20260510061331 11 209 6.4 0.0 0.00 0.00 0.00 80 1011.4
20260510060829 10 182 6.4 0.0 0.00 0.00 0.00 83 1011.3
20260510060327 10 226 8.0 0.0 0.00 0.00 0.00 82 1011.5
20260510055814 10 185 8.0 0.0 0.00 0.00 0.00 83 1011.5
20260510055314 10 194 6.4 0.0 0.00 0.00 0.00 84 1011.4
20260510054820 10 194 8.0 0.0 0.00 0.00 0.00 83 1011.5
20260510054327 10 244 8.0 0.0 0.00 0.00 0.00 85 1011.6
20260510053822 9 224 8.0 0.0 0.00 0.00 0.00 86 1011.6
20260510053319 9 244 9.7 0.0 0.00 0.00 0.00 87 1011.6
20260510052835 8 183 8.0 0.0 0.00 0.00 0.00 88 1011.6
20260510052330 8 213 8.0 0.0 0.00 0.00 0.00 88 1011.8
20260510051828 8 232 9.7 0.0 0.00 0.00 0.00 87 1011.8
20260510051317 8 230 9.7 0.0 0.00 0.00 0.00 87 1011.8
20260510050821 8 232 8.0 0.0 0.00 0.00 0.00 88 1011.8
20260510050318 8 221 8.0 0.0 0.00 0.00 0.00 87 1011.9
20260510045813 8 222 9.7 0.0 0.00 0.00 0.00 84 1011.9
20260510045318 8 211 9.7 0.0 0.00 0.00 0.00 87 1012.0
20260510044820 8 238 8.0 0.0 0.00 0.00 0.00 87 1011.9
20260510044328 8 229 8.0 0.0 0.00 0.00 0.00 87 1012.1
20260510043832 8 235 8.0 0.0 0.00 0.00 0.00 86 1012.1
20260510043329 8 225 9.7 0.0 0.00 0.00 0.00 86 1012.2
20260510042823 8 228 9.7 0.0 0.00 0.00 0.00 85 1012.2
20260510042321 8 223 9.7 0.0 0.00 0.00 0.00 84 1012.2
20260510041822 8 221 9.7 0.0 0.00 0.00 0.00 83 1012.2
20260510041318 8 223 8.0 0.0 0.00 0.00 0.00 82 1012.1
20260510040818 9 229 8.0 0.0 0.00 0.00 0.00 83 1012.0
20260510040316 9 244 6.4 0.0 0.00 0.00 0.00 82 1012.0
20260510035814 9 240 6.4 0.0 0.00 0.00 0.00 81 1011.8
20260510035319 9 229 6.4 0.0 0.00 0.00 0.00 81 1011.8
20260510034836 9 243 8.0 0.0 0.00 0.00 0.00 80 1012.0
20260510034331 10 215 8.0 0.0 0.00 0.00 0.00 80 1011.8
20260510033828 10 218 8.0 0.0 0.00 0.00 0.00 80 1011.9
20260510033315 10 225 8.0 0.0 0.00 0.00 0.00 79 1011.9
20260510032818 10 223 6.4 0.0 0.00 0.00 0.00 77 1011.7
20260510032316 10 225 6.4 0.0 0.00 0.00 0.00 78 1011.8
20260510031815 10 248 6.4 0.0 0.00 0.00 0.00 78 1011.7
20260510031333 10 233 8.0 0.0 0.00 0.00 0.00 77 1011.8
20260510030829 10 180 8.0 0.0 0.00 0.00 0.00 77 1011.8
20260510030327 10 214 6.4 0.0 0.00 0.00 0.00 77 1011.8
20260510025825 10 258 4.8 0.0 0.00 0.00 0.00 77 1011.7
20260510025328 10 202 3.2 0.0 0.00 0.00 0.00 77 1011.8
20260510024820 10 242 3.2 0.0 0.00 0.00 0.00 77 1011.7
20260510024318 10 171 1.6 0.0 0.00 0.00 0.00 78 1011.8
20260510023839 10 234 0.0 0.0 0.00 0.00 0.00 79 1011.7
20260510023327 9 153 0.0 0.0 0.00 0.00 0.00 78 1011.7
20260510022828 10 153 0.0 0.0 0.00 0.00 0.00 77 1011.7
20260510022325 10 232 0.0 0.0 0.00 0.00 0.00 77 1011.6
20260510021815 10 232 0.0 0.0 0.00 0.00 0.00 77 1011.6
20260510021323 10 232 1.6 0.0 0.00 0.00 0.00 76 1011.4
20260510020837 10 232 1.6 0.0 0.00 0.00 0.00 76 1011.3
20260510020330 10 212 0.0 0.0 0.00 0.00 0.00 74 1011.2
20260510015826 10 220 1.6 0.0 0.00 0.00 0.00 73 1011.2
20260510015323 11 225 3.2 0.0 0.00 0.00 0.00 72 1011.2
20260510014839 11 225 1.6 0.0 0.00 0.00 0.00 72 1011.0
20260510014327 11 221 0.0 0.0 0.00 0.00 0.00 71 1010.8
20260510013827 11 221 0.0 0.0 0.00 0.00 0.00 69 1010.8
20260510013322 12 221 0.0 0.0 0.00 0.00 0.00 68 1010.7
20260510012820 12 221 1.6 0.0 0.00 0.00 0.00 67 1010.6
20260510012322 12 242 3.2 0.0 0.00 0.00 0.00 67 1010.5
20260510011814 12 221 4.8 0.0 0.00 0.00 0.00 66 1010.4
20260510011315 12 238 4.8 0.0 0.00 0.00 0.00 65 1010.3
20260510010832 13 208 4.8 0.0 0.00 0.00 0.00 65 1010.2
20260510010330 13 238 6.4 0.0 0.00 0.00 0.00 64 1010.2
20260510005827 13 229 6.4 0.0 0.00 0.00 0.00 64 1010.2
20260510005325 13 235 8.0 0.0 0.00 0.00 0.00 64 1010.1
20260510004820 13 215 6.4 0.0 0.00 0.00 0.00 63 1010.1
20260510004316 13 219 6.4 0.0 0.00 0.00 0.00 63 1009.8
20260510003836 13 232 6.4 0.0 0.00 0.00 0.00 63 1009.8
20260510003324 13 229 6.4 0.0 0.00 0.00 0.00 62 1009.7
20260510002821 13 234 6.4 0.0 0.00 0.00 0.00 61 1009.6
20260510002317 14 215 4.8 0.0 0.00 0.00 0.00 60 1009.5
20260510001838 14 221 4.8 0.0 0.00 0.00 0.00 59 1009.5
20260510001332 15 226 3.2 0.0 0.00 0.00 0.00 59 1009.4
20260510000829 15 239 3.2 0.0 0.00 0.00 0.00 57 1009.3
20260510000320 15 243 1.6 0.0 0.00 0.00 0.00 57 1009.2
20260509235818 15 255 3.2 0.0 0.00 0.00 0.00 56 1009.1
20260509235315 16 229 3.2 0.0 0.00 0.00 0.00 54 1009.1
20260509234834 16 192 3.2 0.0 0.00 0.00 0.00 55 1008.9
20260509234321 16 246 4.8 0.0 0.00 0.00 0.00 54 1009.0
20260509233824 16 302 8.0 0.0 0.00 0.00 0.00 53 1009.0
20260509233316 16 242 6.4 0.0 0.00 0.00 0.00 53 1009.0
20260509232820 16 247 3.2 0.0 0.00 0.00 0.00 53 1009.0
20260509232318 17 225 4.8 0.0 0.00 0.00 0.00 53 1009.0
20260509231836 17 271 8.0 0.0 0.00 0.00 0.00 51 1009.1
20260509231329 17 248 8.0 0.0 0.00 0.00 0.00 52 1009.1
20260509230827 17 239 8.0 0.0 0.00 0.00 0.00 51 1009.2
20260509230329 17 244 8.0 0.0 0.00 0.00 0.00 50 1009.2
20260509225822 17 248 6.4 0.0 0.00 0.00 0.00 50 1009.2
20260509225320 17 274 6.4 0.0 0.00 0.00 0.00 48 1009.2
20260509224843 17 216 8.0 0.0 0.00 0.00 0.00 48 1009.3
20260509224328 17 306 9.7 0.0 0.00 0.00 0.00 49 1009.2
20260509223833 17 276 8.0 0.0 0.00 0.00 0.00 47 1009.1
20260509223333 17 250 6.4 0.0 0.00 0.00 0.00 47 1009.1
20260509222826 18 296 4.8 0.0 0.00 0.00 0.00 46 1009.1
20260509222325 18 252 3.2 0.0 0.00 0.00 0.00 45 1009.2
20260509221817 18 299 4.8 0.0 0.00 0.00 0.00 44 1009.0
20260509221330 18 244 9.7 0.0 0.00 0.00 0.00 41 1009.0
20260509220827 18 290 11.3 0.0 0.00 0.00 0.00 43 1009.1
20260509220319 17 206 11.3 0.0 0.00 0.00 0.00 43 1008.9
20260509215823 18 224 14.5 0.0 0.00 0.00 0.00 42 1008.8
20260509215322 18 235 16.1 0.0 0.00 0.00 0.00 43 1008.8
20260509214812 18 253 16.1 0.0 0.00 0.00 0.00 41 1008.8
20260509214311 18 227 20.9 0.0 0.00 0.00 0.00 44 1008.8
20260509213833 18 233 19.3 0.0 0.00 0.00 0.00 42 1008.9
20260509213331 18 285 14.5 0.0 0.00 0.00 0.00 42 1008.7
20260509212820 18 263 19.3 0.0 0.00 0.00 0.00 42 1008.7
20260509212319 18 225 19.3 0.0 0.00 0.00 0.00 43 1008.7
20260509211816 18 219 12.9 0.0 0.00 0.00 0.00 44 1008.7
20260509211317 18 288 14.5 0.0 0.00 0.00 0.00 41 1008.5
20260509210818 18 251 16.1 0.0 0.00 0.00 0.00 42 1008.6
20260509210341 18 241 14.5 0.0 0.00 0.00 0.00 43 1008.5
20260509205830 18 207 16.1 0.0 0.00 0.00 0.00 45 1008.3
20260509205327 18 247 20.9 0.0 0.00 0.00 0.00 45 1008.3
20260509204815 18 236 22.5 0.0 0.00 0.00 0.00 47 1008.4
20260509204321 19 205 20.9 0.0 0.00 0.00 0.00 47 1008.3
20260509203819 19 209 19.3 0.0 0.00 0.00 0.00 43 1008.3
20260509203340 20 215 16.1 0.0 0.00 0.00 0.00 43 1008.2
20260509202829 20 260 11.3 0.0 0.00 0.00 0.00 43 1008.2
20260509202325 18 215 12.9 0.0 0.00 0.00 0.00 46 1008.2
20260509201820 18 229 19.3 0.0 0.00 0.00 0.00 46 1008.4
20260509201320 18 237 20.9 0.0 0.00 0.00 0.00 46 1008.4
20260509200820 19 208 20.9 0.0 0.00 0.00 0.00 45 1008.2
20260509200338 19 213 16.1 0.0 0.00 0.00 0.00 44 1008.3
20260509195824 19 211 9.7 0.0 0.00 0.00 0.00 42 1008.3
20260509195321 19 275 14.5 0.0 0.00 0.00 0.00 43 1008.2
20260509194836 19 279 19.3 0.0 0.00 0.00 0.00 50 1008.3
20260509194313 19 243 19.3 0.0 0.00 0.00 0.00 45 1008.2
20260509193812 20 200 22.5 0.0 0.00 0.00 0.00 43 1008.3
20260509193333 20 244 24.1 0.0 0.00 0.00 0.00 44 1008.2
20260509192824 20 239 20.9 0.0 0.00 0.00 0.00 47 1008.2
20260509192321 20 239 20.9 0.0 0.00 0.00 0.00 47 1008.2
20260509191838 20 253 22.5 0.0 0.00 0.00 0.00 48 1008.4
20260509191326 20 240 24.1 0.0 0.00 0.00 0.00 49 1008.4
20260509190829 20 257 22.5 0.0 0.00 0.00 0.00 45 1008.4
20260509190327 19 205 17.7 0.0 0.00 0.00 0.00 57 1008.3
20260509185815 18 202 16.1 0.0 0.00 0.00 0.00 51 1008.5
20260509185321 18 182 19.3 0.0 0.00 0.00 0.00 53 1008.6
20260509184815 19 192 22.5 0.0 0.00 0.00 0.00 50 1008.6
20260509184333 19 198 19.3 0.0 0.00 0.00 0.00 53 1008.6
20260509183815 19 200 14.5 0.0 0.00 0.00 0.00 54 1008.5
20260509183337 18 180 14.5 0.0 0.00 0.00 0.00 54 1008.5
20260509182814 18 192 14.5 0.0 0.00 0.00 0.00 59 1008.4
20260509182313 18 209 11.3 0.0 0.00 0.00 0.00 58 1008.5
20260509181826 18 295 9.7 0.0 0.00 0.00 0.00 56 1008.8
20260509181329 17 243 11.3 0.0 0.00 0.00 0.00 57 1008.9
20260509180828 17 272 14.5 0.0 0.00 0.00 0.00 59 1008.8
20260509180327 17 252 14.5 0.0 0.00 0.00 0.00 58 1009.0
20260509175821 17 219 14.5 0.0 0.00 0.00 0.00 59 1009.0
20260509175319 17 209 14.5 0.0 0.00 0.00 0.00 60 1009.0
20260509174840 17 272 12.9 0.0 0.00 0.00 0.00 60 1008.9
20260509174332 17 223 12.9 0.0 0.00 0.00 0.00 58 1009.1
20260509173830 16 219 12.9 0.0 0.00 0.00 0.00 61 1009.2
20260509173322 17 259 11.3 0.0 0.00 0.00 0.00 60 1009.3
20260509172822 16 176 9.7 0.0 0.00 0.00 0.00 60 1009.1
20260509172321 16 215 12.9 0.0 0.00 0.00 0.00 60 1009.2
20260509171839 16 204 16.1 0.0 0.00 0.00 0.00 59 1009.4
20260509171326 16 250 16.1 0.0 0.00 0.00 0.00 61 1009.4
20260509170830 16 220 16.1 0.0 0.00 0.00 0.00 60 1009.4
20260509170317 16 248 19.3 0.0 0.00 0.00 0.00 58 1009.5
20260509165814 16 233 19.3 0.0 0.00 0.00 0.00 58 1009.7
20260509165320 16 207 14.5 0.0 0.00 0.00 0.00 61 1009.5
20260509164837 16 224 14.5 0.0 0.00 0.00 0.00 62 1009.3
20260509164331 16 200 14.5 0.0 0.00 0.00 0.00 62 1009.2
20260509163829 16 231 12.9 0.0 0.00 0.00 0.00 65 1009.3
20260509163326 16 236 16.1 0.0 0.00 0.00 0.00 62 1009.2
20260509162827 16 181 16.1 0.0 0.00 0.00 0.00 60 1009.1
20260509162324 16 215 14.5 0.0 0.00 0.00 0.00 61 1009.2
20260509161819 16 215 14.5 0.0 0.00 0.00 0.00 64 1009.3
20260509161335 16 226 16.1 0.0 0.00 0.00 0.00 64 1009.3
20260509160831 16 188 17.7 0.0 0.00 0.00 0.00 61 1009.3
20260509160326 16 192 19.3 0.0 0.00 0.00 0.00 59 1009.3
20260509155820 16 177 20.9 0.0 0.00 0.00 0.00 60 1009.4
20260509155322 16 181 20.9 0.0 0.00 0.00 0.00 60 1009.2
20260509154817 17 178 20.9 0.0 0.00 0.00 0.00 61 1009.2
20260509154315 16 225 19.3 0.0 0.00 0.00 0.00 64 1009.3
20260509153839 16 178 19.3 0.0 0.00 0.00 0.00 64 1009.2
20260509153327 16 170 19.3 0.0 0.00 0.00 0.00 62 1009.5
20260509152824 16 211 20.9 0.0 0.00 0.00 0.00 66 1009.5
20260509152323 16 198 19.3 0.0 0.00 0.00 0.00 62 1009.4
20260509151837 16 178 17.7 0.0 0.00 0.00 0.00 65 1009.4
20260509151323 16 193 16.1 0.0 0.00 0.00 0.00 62 1009.3
20260509150828 16 243 14.5 0.0 0.00 0.00 0.00 64 1009.5
20260509150323 16 215 14.5 0.0 0.00 0.00 0.00 66 1009.5
20260509145823 16 194 16.1 0.0 0.00 0.00 0.00 66 1008.5
20260509145320 15 193 16.1 0.0 0.00 0.00 0.00 66 1008.4
20260509144841 15 163 14.5 0.0 0.00 0.00 0.00 63 1008.5
20260509144332 15 182 14.5 0.0 0.00 0.00 0.00 66 1008.5
20260509143829 15 180 14.5 0.0 0.00 0.00 0.00 64 1008.6
20260509143323 15 201 14.5 0.0 0.00 0.00 0.00 65 1008.8
20260509142825 15 221 11.3 0.0 0.00 0.00 0.00 66 1008.7
20260509142322 15 202 9.7 0.0 0.00 0.00 0.00 66 1008.4
20260509141817 15 210 9.7 0.0 0.00 0.00 0.00 67 1008.4
20260509141315 15 197 11.3 0.0 0.00 0.00 0.00 70 1008.4
20260509140839 15 227 11.3 0.0 0.00 0.00 0.00 71 1008.5
20260509140329 14 241 11.3 0.0 0.00 0.00 0.00 73 1008.5
20260509135830 14 229 11.3 0.0 0.00 0.00 0.00 72 1008.7
20260509135325 13 223 12.9 0.0 0.00 0.00 0.00 72 1008.9
20260509134816 13 229 14.5 0.0 0.00 0.00 0.00 74 1009.1
20260509134314 13 232 12.9 0.0 0.00 0.00 0.00 76 1009.2
20260509133832 13 189 14.5 0.0 0.00 0.00 0.00 76 1009.2
20260509133322 13 230 16.1 0.0 0.00 0.00 0.00 76 1009.3
20260509132822 12 202 16.1 0.0 0.00 0.00 0.00 78 1009.5
20260509132318 12 201 14.5 0.0 0.00 0.00 0.00 78 1009.6
20260509131840 12 230 14.5 0.0 0.00 0.00 0.00 78 1009.5
20260509131314 11 232 14.5 0.0 0.00 0.00 0.00 80 1009.7
20260509130831 11 222 14.5 0.0 0.00 0.00 0.00 80 1009.6
20260509130325 11 223 14.5 0.0 0.00 0.00 0.00 81 1009.6
20260509125823 10 212 12.9 0.0 0.00 0.00 0.00 82 1009.7
20260509125324 10 211 14.5 0.0 0.00 0.00 0.00 81 1009.8
20260509124843 10 188 12.9 0.0 0.00 0.00 0.00 82 1009.8
20260509124330 9 194 9.7 0.0 0.00 0.00 0.00 85 1009.9
20260509123836 9 197 9.7 0.0 0.00 0.00 0.00 87 1009.9
20260509123328 8 211 9.7 0.0 0.00 0.00 0.00 88 1009.9
20260509122828 8 234 9.7 0.0 0.00 0.00 0.00 87 1009.9
20260509122326 8 236 9.7 0.0 0.00 0.00 0.00 88 1009.8
20260509121818 8 232 9.7 0.0 0.00 0.00 0.00 87 1009.8
20260509121316 7 231 9.7 0.0 0.00 0.00 0.00 88 1009.8
20260509120833 7 232 8.0 0.0 0.00 0.00 0.00 89 1009.7
20260509120322 7 241 8.0 0.0 0.00 0.00 0.00 89 1009.7
20260509115820 7 231 8.0 0.0 0.00 0.00 0.00 90 1009.8
20260509115323 7 223 8.0 0.0 0.00 0.00 0.00 89 1009.9
20260509114840 7 226 6.4 0.0 0.00 0.00 0.00 90 1009.7
20260509114330 6 223 4.8 0.0 0.00 0.00 0.00 90 1009.7
20260509113833 6 229 4.8 0.0 0.00 0.00 0.00 90 1009.8
20260509113332 6 221 4.8 0.0 0.00 0.00 0.00 90 1009.9
20260509112820 5 228 4.8 0.0 0.00 0.00 0.00 90 1009.9
20260509112321 5 221 4.8 0.0 0.00 0.00 0.00 90 1009.9
20260509111839 5 227 4.8 0.0 0.00 0.00 0.00 90 1010.0
20260509111333 5 231 4.8 0.0 0.00 0.00 0.00 90 1010.0
20260509110832 5 224 6.4 0.0 0.00 0.00 0.00 90 1010.0
20260509110336 5 221 6.4 0.0 0.00 0.00 0.00 90 1010.0
20260509105825 5 218 4.8 0.0 0.00 0.00 0.00 90 1010.1
20260509105329 5 220 4.8 0.0 0.00 0.00 0.00 89 1010.0
20260509104821 5 213 6.4 0.0 0.00 0.00 0.00 88 1009.9
20260509104324 5 215 8.0 0.0 0.00 0.00 0.00 88 1009.9
20260509103825 5 219 8.0 0.0 0.00 0.00 0.00 87 1009.9
20260509103313 5 229 8.0 0.0 0.00 0.00 0.00 86 1009.9
20260509102816 6 223 8.0 0.0 0.00 0.00 0.00 87 1009.8
20260509102339 5 229 9.7 0.0 0.00 0.00 0.00 88 1009.9
20260509101828 5 225 9.7 0.0 0.00 0.00 0.00 88 1009.9
20260509101325 5 239 8.0 0.0 0.00 0.00 0.00 86 1009.8
20260509100826 5 229 6.4 0.0 0.00 0.00 0.00 85 1009.8
20260509100318 5 218 6.4 0.0 0.00 0.00 0.00 85 1009.8
20260509095819 5 216 6.4 0.0 0.00 0.00 0.00 85 1009.8
20260509095336 5 181 4.8 0.0 0.00 0.00 0.00 84 1009.8
20260509094813 6 164 4.8 0.0 0.00 0.00 0.00 83 1009.8
20260509094313 6 143 6.4 0.0 0.00 0.00 0.00 82 1009.9
20260509093836 6 254 8.0 0.0 0.00 0.00 0.00 84 1010.0
20260509093326 6 237 8.0 0.0 0.00 0.00 0.00 85 1010.1
20260509092826 5 249 8.0 0.0 0.00 0.00 0.00 86 1009.9
20260509092325 5 242 9.7 0.0 0.00 0.00 0.00 86 1010.0
20260509091823 5 225 9.7 0.0 0.00 0.00 0.00 86 1010.0
20260509091323 5 229 9.7 0.0 0.00 0.00 0.00 86 1010.1
20260509090841 5 227 9.7 0.0 0.00 0.00 0.00 86 1010.1
20260509090330 5 226 9.7 0.0 0.00 0.00 0.00 87 1010.3
20260509085831 5 225 9.7 0.0 0.00 0.00 0.00 86 1010.3
20260509085329 5 228 9.7 0.0 0.00 0.00 0.00 86 1010.3
20260509084815 5 215 9.7 0.0 0.00 0.00 0.00 85 1010.4
20260509084333 5 223 9.7 0.0 0.00 0.00 0.00 85 1010.4
20260509083831 5 226 8.0 0.0 0.00 0.00 0.00 84 1010.3
20260509083319 6 221 8.0 0.0 0.00 0.00 0.00 83 1010.4
20260509082820 6 217 8.0 0.0 0.00 0.00 0.00 82 1010.3
20260509082318 6 223 6.4 0.0 0.00 0.00 0.00 81 1010.4
20260509081821 6 225 6.4 0.0 0.00 0.00 0.00 80 1010.4
20260509081319 7 236 6.4 0.0 0.00 0.00 0.00 80 1010.5
20260509080816 6 236 6.4 0.0 0.00 0.00 0.00 81 1010.5
20260509080340 6 244 6.4 0.0 0.00 0.00 0.00 81 1010.4
20260509075828 6 238 6.4 0.0 0.00 0.00 0.00 81 1010.4
20260509075331 7 236 6.4 0.0 0.00 0.00 0.00 81 1010.6
20260509074822 6 242 6.4 0.0 0.00 0.00 0.00 81 1010.5
20260509074320 6 243 8.0 0.0 0.00 0.00 0.00 82 1010.5
20260509073819 6 224 6.4 0.0 0.00 0.00 0.00 83 1010.6
20260509073338 6 236 6.4 0.0 0.00 0.00 0.00 84 1010.6
20260509072833 6 228 6.4 0.0 0.00 0.00 0.00 84 1010.7
20260509072336 6 228 8.0 0.0 0.00 0.00 0.00 84 1010.7
20260509071825 6 236 8.0 0.0 0.00 0.00 0.00 83 1010.7
20260509071325 6 231 8.0 0.0 0.00 0.00 0.00 84 1010.7
20260509070824 6 238 8.0 0.0 0.00 0.00 0.00 84 1010.9
20260509070319 5 225 8.0 0.0 0.00 0.00 0.00 85 1010.9